Old Crow AWS Syst, Yukon Territory

8:18 PM PST on February 22, 2017 (GMT -0800)
Old Crow

Weather History for CZOC - February, 2014

Change the Weather History Date:

Monday, February 10, 2014

  Actual Average Record
Temperature  
Mean Temperature -38 °F -  
Max Temperature -31 °F - - ()
Min Temperature -44 °F - - ()
Degree Days  
Heating Degree Days 102    
Moisture  
Dew Point -47 °F    
Average Humidity 60    
Maximum Humidity 67    
Minimum Humidity 41    
Precipitation  
Precipitation 0.00 in - - ()
Sea Level Pressure  
Sea Level Pressure 30.63 in    
Wind  
Wind Speed 1 mph ()    
Max Wind Speed 4 mph    
Max Gust Speed -    
T = Trace of Precipitation, MM = Missing Value Source: Averaged Metar Reports

Daily Weather History Graph

Daily Weather History Graph

Search for Another Location

Airport or City:

Trip Planner

Search our weather history database for the weather conditions in past years. The results will help you decide how hot, cold, wet, or windy it might be!

Date:

Astronomy

Feb. 10, 2014 Rise Set
Actual Time 9:53 AM PST 5:14 PM PST
Civil Twilight 8:50 AM PST 6:17 PM PST
Nautical Twilight 7:45 AM PST 7:23 PM PST
Astronomical Twilight 6:42 AM PST 8:26 PM PST
Moon 12:47 PM PST (2/10) 7:57 AM PST (2/10)
Length of Visible Light 9h 26m
Length of Day
7h 21m
Waxing Gibbous, 85% of the Moon is Illuminated
Feb 10
Waxing Gibbous
Feb 14
Full
Feb 22
Last Quarter
Mar 1
New
Mar 8
First Quarter

Hourly Weather History & Observations

Time (PST) Temp. Windchill Dew Point Humidity Pressure Visibility Wind Dir Wind Speed Gust Speed Precip Events Conditions
12:00 AM -33.5 °F -46.1 °F -41.3 °F 66% 30.78 in - SW 3.5 mph - N/A   Unknown
1:00 AM -35.0 °F - -42.7 °F 66% 30.79 in - NE 2.3 mph - N/A   Unknown
2:00 AM -36.4 °F - -44.3 °F 65% 30.80 in - NE 2.3 mph - N/A   Unknown
3:00 AM -36.8 °F - -44.9 °F 64% 30.79 in - West 2.3 mph - N/A   Unknown
4:00 AM -39 °F - -48 °F 42% 30.79 in - East 2.3 mph - -  
4:00 AM -39.5 °F - -47.6 °F 64% 30.79 in - Calm Calm - N/A   Unknown
5:00 AM -42.2 °F - -50.6 °F 62% 30.78 in - Calm Calm - N/A   Unknown
6:00 AM -42.2 °F - -50.8 °F 61% 30.77 in - WSW 1.2 mph - N/A   Unknown
7:00 AM -44.0 °F - -52.6 °F 61% 30.75 in - SW 1.2 mph - N/A   Unknown
8:00 AM -42.5 °F - -51.2 °F 61% 30.73 in - NNW 1.2 mph - N/A   Unknown
9:00 AM -42.5 °F - -51.2 °F 61% 30.71 in - Calm Calm - N/A   Unknown
10:00 AM -44 °F - -52 °F 42% 30.71 in - NNE 1.2 mph - -  
10:00 AM -43.6 °F - -52.2 °F 61% 30.71 in - Calm Calm - N/A   Unknown
11:00 AM -42.9 °F - -51.5 °F 61% 30.69 in - Calm Calm - N/A   Unknown
12:00 PM -40.7 °F - -49.2 °F 62% 30.66 in - East 1.2 mph - N/A   Unknown
1:00 PM -39.3 °F - -47.7 °F 62% 30.63 in - SE 2.3 mph - N/A   Unknown
2:00 PM -36.4 °F - -44.5 °F 64% 30.60 in - SSW 1.2 mph - N/A   Unknown
3:00 PM -32.1 °F - -39.8 °F 66% 30.57 in - Calm Calm - N/A   Unknown
4:00 PM -32 °F - -39 °F 49% 30.55 in - WSW 1.2 mph - -  
4:00 PM -31.9 °F - -39.5 °F 67% 30.55 in - WSW 1.2 mph - N/A   Unknown
5:00 PM -33.2 °F - -40.9 °F 66% 30.52 in - Calm Calm - N/A   Unknown
6:00 PM -35.7 °F - -43.8 °F 64% 30.48 in - Calm Calm - N/A   Unknown
7:00 PM -37.5 °F - -45.8 °F 63% 30.45 in - Calm Calm - N/A   Unknown
8:00 PM -39.3 °F - -47.7 °F 62% 30.43 in - Calm Calm - N/A   Unknown
9:00 PM -38.9 °F - -47.0 °F 64% 30.40 in - West 1.2 mph - N/A   Unknown
10:00 PM -41 °F - -50 °F 41% 30.39 in - Calm Calm - -  
10:00 PM -41.3 °F - -49.7 °F 62% 30.39 in - Calm Calm - N/A   Unknown
11:00 PM -41.4 °F - -50.1 °F 62% 30.36 in - Calm Calm - N/A   Unknown